Orbital Elements at Epoch 2459200.5 (2020-Dec-17.0) TDB
Reference: JPL 17 (heliocentric ecliptic J2000)
Element | Value | Uncertainty (1-sigma) | Units |
e | .04616577985776885 | 4.4049e-08 | |
a | 2.776487585109467 | 1.813e-08 | au |
q | 2.648308870477475 | 1.262e-07 | au |
i | 5.34887568864427 | 4.5559e-06 | deg |
node | 40.60009450907646 | 5.3045e-05 | deg |
peri | 255.6690557119477 | 7.7656e-05 | deg |
M | 33.7897206687331 | 5.4655e-05 | deg |
tp | 2459041.892349616746 (2020-Jul-11.39234962) | 0.00025704 | TDB |
period | 1689.826166299357 4.63 | 1.6551e-05 4.531e-08 | d yr |
n | .2130396647771077 | 2.0867e-09 | deg/d |
Q | 2.904666299741459 | 1.8967e-08 | au |
|
| | Orbit Determination Parameters
Additional Information
|